User: anonymous   Login
Location: Muenchen
(48.1800°N, 11.5800°E)
Time: 04:48:25
(UTC+01:00)
Language:

ISS - Orbit

View from above orbital plane
View from above orbital plane
View from above satellite
View from above satellite

Ground track
Ground track

The orbit data is extracted from the following two-line orbital elements,

1 25544U 98067A   14327.81789561  .00027565  00000-0  46468-3 0  4511
2 25544 051.6479 028.1726 0007002 061.0961 048.9026 15.51438454916096
Epoch (UTC): 23 November 2014 19:37:46
Eccentricity: 0.0007002
inclination: 51.6479°
perigee height: 408 km
apogee height: 417 km
right ascension of ascending node: 28.1726°
argument of perigee: 61.0961°
revolutions per day: 15.51438454
mean anomaly at epoch: 48.9026°
orbit number at epoch: 91609

The dashed part of the orbit path shows where the satellite is in the earth's shadow,  

DLR